TimeEST,TemperatureF,Dew PointF,Humidity,Sea Level PressureIn,VisibilityMPH,Wind Direction,Wind SpeedMPH,Gust SpeedMPH,PrecipitationIn,Events,Conditions,WindDirDegrees,DateUTC
12:52 AM,30.0,27.0,88,30.04,6.0,Calm,Calm,-,0.02,Rain,Light Freezing Rain,0,2013-01-30 05:52:00
1:06 AM,30.2,28.4,93,29.98,8.0,Calm,Calm,-,0.00,,Overcast,0,2013-01-30 06:06:00
1:52 AM,30.9,28.0,89,30.01,8.0,Calm,Calm,-,0.00,,Overcast,0,2013-01-30 06:52:00
2:52 AM,32.0,28.9,88,29.97,4.0,Calm,Calm,-,0.05,,Overcast,0,2013-01-30 07:52:00
3:52 AM,32.0,28.9,88,29.93,5.0,NNW,3.5,-,0.01,,Overcast,340,2013-01-30 08:52:00
4:52 AM,33.1,30.0,89,29.92,6.0,NW,3.5,-,0.04,Rain,Light Rain,320,2013-01-30 09:52:00
5:20 AM,33.8,30.2,87,29.86,5.0,Calm,Calm,-,0.01,Rain,Light Rain,0,2013-01-30 10:20:00
5:52 AM,33.1,30.9,92,29.89,5.0,Calm,Calm,-,0.03,Rain,Light Rain,0,2013-01-30 10:52:00
6:52 AM,33.1,30.9,92,29.87,6.0,Calm,Calm,-,0.00,,Overcast,0,2013-01-30 11:52:00
7:52 AM,34.0,32.0,92,29.84,5.0,Calm,Calm,-,N/A,,Overcast,0,2013-01-30 12:52:00
8:19 AM,33.8,32.0,93,29.78,7.0,Calm,Calm,-,N/A,,Partly Cloudy,0,2013-01-30 13:19:00
8:52 AM,35.1,32.0,89,29.80,9.0,Calm,Calm,-,N/A,,Partly Cloudy,0,2013-01-30 13:52:00
9:52 AM,35.1,32.0,89,29.75,8.0,NNW,4.6,-,N/A,,Mostly Cloudy,330,2013-01-30 14:52:00
10:17 AM,35.6,33.8,93,29.70,9.0,NNW,5.8,-,N/A,,Mostly Cloudy,340,2013-01-30 15:17:00
10:52 AM,36.0,34.0,93,29.71,9.0,NW,5.8,-,N/A,,Mostly Cloudy,320,2013-01-30 15:52:00
11:09 AM,37.4,33.8,87,29.66,9.0,NNW,6.9,-,N/A,,Scattered Clouds,330,2013-01-30 16:09:00
11:52 AM,37.9,35.1,89,29.65,10.0,NNW,4.6,-,N/A,,Clear,340,2013-01-30 16:52:00
12:52 PM,42.1,37.9,85,29.60,10.0,Variable,3.5,-,N/A,,Mostly Cloudy,0,2013-01-30 17:52:00
1:52 PM,43.0,39.0,86,29.54,10.0,Variable,4.6,-,N/A,,Mostly Cloudy,0,2013-01-30 18:52:00
2:52 PM,39.9,37.0,89,29.49,7.0,Calm,Calm,-,N/A,,Overcast,0,2013-01-30 19:52:00
3:52 PM,41.0,39.0,93,29.48,10.0,NNW,3.5,-,0.00,,Overcast,340,2013-01-30 20:52:00
4:52 PM,44.1,42.1,93,29.48,9.0,SE,3.5,-,0.02,,Overcast,130,2013-01-30 21:52:00
5:11 PM,42.8,42.8,100,29.45,4.0,SE,5.8,-,N/A,,Overcast,140,2013-01-30 22:11:00
5:42 PM,51.8,46.4,82,29.42,10.0,SSE,10.4,-,N/A,,Overcast,160,2013-01-30 22:42:00
5:52 PM,51.1,46.0,83,29.45,10.0,South,8.1,-,N/A,,Overcast,180,2013-01-30 22:52:00
6:31 PM,46.4,44.6,93,29.43,10.0,ENE,4.6,-,N/A,,Overcast,70,2013-01-30 23:31:00
6:52 PM,55.0,48.0,77,29.45,10.0,East,9.2,-,N/A,,Overcast,80,2013-01-30 23:52:00
7:45 PM,42.8,39.2,87,29.42,1.8,Calm,Calm,-,0.00,Rain,Light Rain,0,2013-01-31 00:45:00
7:48 PM,41.0,39.2,93,29.42,0.8,Calm,Calm,-,0.00,Rain,Light Rain,0,2013-01-31 00:48:00
7:52 PM,41.0,39.9,96,29.44,0.8,Calm,Calm,-,0.00,Rain,Light Rain,0,2013-01-31 00:52:00
8:04 PM,41.0,39.2,93,29.41,1.0,Calm,Calm,-,0.00,Rain,Light Rain,0,2013-01-31 01:04:00
8:12 PM,39.2,39.2,100,29.41,0.8,Calm,Calm,-,0.00,Rain,Light Rain,0,2013-01-31 01:12:00
8:27 PM,39.2,37.4,93,29.40,0.5,South,3.5,-,0.00,Fog-Rain,Light Rain,190,2013-01-31 01:27:00
8:52 PM,41.0,39.9,96,29.44,0.8,East,3.5,-,0.02,Rain,Light Rain,100,2013-01-31 01:52:00
9:19 PM,41.0,39.2,93,29.41,0.5,Calm,Calm,-,0.00,Fog,Fog,0,2013-01-31 02:19:00
9:34 PM,39.2,39.2,100,29.42,0.2,Calm,Calm,-,0.00,Fog-Rain,Light Rain,0,2013-01-31 02:34:00
9:52 PM,39.9,37.9,93,29.45,0.2,Calm,Calm,-,0.00,Fog-Rain,Light Rain,0,2013-01-31 02:52:00
10:21 PM,42.8,39.2,87,29.37,0.2,Calm,Calm,-,0.00,Fog,Fog,0,2013-01-31 03:21:00
10:29 PM,42.8,41.0,93,29.37,0.2,Calm,Calm,-,0.00,Fog,Fog,0,2013-01-31 03:29:00
10:40 PM,42.8,42.8,100,29.37,0.2,Calm,Calm,-,0.00,Fog-Rain,Light Rain,0,2013-01-31 03:40:00
10:52 PM,42.1,41.0,96,29.39,0.2,Calm,Calm,-,0.00,Fog,Fog,0,2013-01-31 03:52:00
11:02 PM,39.2,37.4,93,29.36,0.2,Calm,Calm,-,N/A,Fog,Fog,0,2013-01-31 04:02:00
11:12 PM,37.4,37.4,100,29.35,0.2,Calm,Calm,-,0.00,Fog-Rain,Light Rain,0,2013-01-31 04:12:00
11:19 PM,37.4,37.4,100,29.35,0.2,Calm,Calm,-,0.00,Fog-Rain,Light Rain,0,2013-01-31 04:19:00
11:43 PM,37.4,37.4,100,29.34,0.2,Calm,Calm,-,0.00,Fog,Fog,0,2013-01-31 04:43:00
11:52 PM,37.9,37.0,97,29.37,0.2,Calm,Calm,-,0.00,Fog,Fog,0,2013-01-31 04:52:00